STARLINK-33819, 63494

Orbit data source: Space-Track

STARLINK-33819, 63494 is a payload satellite owned by SpaceX/Seattle (US) in LEO that was launched on Mon, 07 Apr 2025 UTC via an FALCON 9 launch vehicle from the Air Force Western Test Range (AFWTR). Payload-class satellites include a variety of spacecraft equipped with specific instruments for various scientific and technological missions. These include communications satellites like Starlink; space stations such as the ISS; scientific satellites like the Hubble; Earth observation satellites from companies like Planet Labs, Umbra, and HawkEye 360; GPS; miniature CubeSats for education and research; and military/defense satellites.

Loading next visibility...
Identifier
63494, 2025-071B
Orbit
LEO
Country
Flag of USUS
Related business
Manufacturer
SpaceX/Seattle
Mission
Operational Commercial Communications
Bus & Motor
STARLINK V2MO, Unknown motor
Mass
575 kg wet, ~530 kg dry
Launch date (UTC)
2025-04-07 (1 year ago)
Launch vehicle
FALCON 9
Launch site
Air Force Western Test Range (AFWTR)
Object type
Payload
Rocket body
Debris
Shape & HBR
Box + 2 Pan, 17.7 m
Radar Cross Section
36.964 m², Large (>1 m²)

Expand to show TLE details & history
Last TLE update: 9 hours ago

TLE from 9 hours ago
0 STARLINK-33819
1 63494U 25071B   26131.22260495  .00024639  00000-0  57339-3 0  9998
2 63494  53.1594 210.2015 0001020  99.5090 260.6031 15.42183203 62310
Epoch: 2026-05-11T05:20Z
TLE epoch observation values (Epoch: 2026-05-11T05:20:33.067Z)
Latitude
-0.00005°
Longitude
-98.95075°
Altitude
440.685 km
Speed
7.649 km/s
True Right ascension
14h 00m 48s
True Declination
0° 00' 00"
Sunlit
Object was in full shadow at epoch
Visualization orbit readout
Latitude
Unknown
Longitude
Unknown
Altitude
Unknown
Speed
Unknown
Apparent Right ascension
Unknown
Apparent Declination
Unknown
Sunlit
N/A
Visualization observer readout
Local Sidereal Time
23:05:14
Azimuth
Unknown
Elevation
Unknown
Doppler factor
Unknown
Orbital elements
Apogee altitude
440.621 km
Perigee altitude
439.23 km
Semi-major axis
6,818.062 km
Eccentricity
0.0001
Inclination
53.1594°
RAAN
210.2015°
Arg. of periapsis
99.509°
True anomaly
260.59157°
Mean anomaly
260.6031°
Eccentric anomaly
260.59733°
Mean motion
3.85524 °/min
Orbital period
93.38 mins
BSTAR
0.00057339
Loading maneuver chart data...
Computing Atmospheric mass density...
Loading historical data...
Loading historical data...
Loading historical data...
Loading historical data...
Loading historical data...
Loading historical data...
Loading historical data...

Documentation

Showing up to 5 results
|